Theta_e
319 320 319 319 320 319 318 317 314 312 311 311 312 312 313 313 312 317 319 322 331 343 347 352 352 352 351 350 351 349 361 364 360 357 358 354 357 353 353 354 353 350 349 348 347
319 319 318 319 319 318 317 315 313 311 310 310 311 312 312 312 316 320 321 329 333 354 353 349 349 350 351 353 346 352 358 360 354 352 356 354 356 356 357 357 356 351 348 346 341
318 318 318 317 318 317 316 315 312 310 310 310 312 312 312 313 330 330 321 337 346 342 345 344 347 347 349 346 351 353 356 354 354 350 352 354 353 350 358 360 355 353 351 343 340
319 318 316 317 316 316 315 315 313 310 310 311 312 312 312 322 345 335 325 341 342 341 341 342 343 349 348 350 348 353 352 353 353 350 354 355 354 351 354 356 352 349 347 340 340
318 318 317 316 316 316 315 315 315 311 311 312 312 312 319 328 321 330 329 336 347 349 344 346 347 348 352 349 350 354 351 349 351 352 354 354 357 358 357 352 348 347 342 339 337
318 318 317 315 315 316 316 316 316 312 311 312 312 312 322 327 334 329 327 339 339 351 350 346 344 346 348 348 351 350 351 351 349 353 351 356 358 357 355 351 349 345 341 336 335
320 317 319 316 315 316 317 317 316 314 312 311 311 321 327 323 338 324 326 327 331 350 350 349 345 347 350 351 347 349 353 350 351 353 354 355 360 361 355 351 350 345 337 335 334
321 320 318 320 315 316 317 318 315 314 312 311 311 325 322 325 338 334 326 331 337 351 353 351 346 345 351 346 349 350 351 356 354 353 353 353 362 358 353 353 350 344 339 336 334
321 321 319 319 317 316 317 317 314 313 311 311 316 326 323 331 338 342 340 343 346 346 351 352 343 345 340 342 341 348 351 350 358 349 351 356 360 357 352 353 352 347 342 341 335
320 321 321 320 320 315 318 317 315 312 313 321 325 324 324 326 337 341 343 345 345 346 348 345 346 347 337 340 344 342 342 350 356 348 348 359 358 356 354 353 352 350 347 343 338
319 321 323 321 321 316 319 324 324 323 324 318 321 324 325 325 327 334 344 346 344 339 339 346 347 344 341 338 342 339 338 341 350 348 345 358 356 355 352 351 351 350 347 345 345
318 320 322 323 322 318 317 324 328 329 326 323 322 324 324 325 325 325 338 345 340 341 342 345 346 343 340 340 343 341 335 335 351 347 350 353 358 355 353 352 350 350 349 348 345
316 319 322 323 322 318 317 320 322 323 324 327 323 322 323 322 325 324 336 337 339 338 337 333 334 335 344 339 334 326 331 331 346 353 356 357 360 358 354 352 350 349 347 347 346
313 318 322 324 317 321 320 330 324 322 324 327 327 323 323 325 326 331 337 337 336 339 337 332 331 333 329 331 325 325 325 330 357 359 365 353 366 350 356 355 353 350 348 347 346
311 318 322 322 319 320 331 327 323 324 331 329 325 325 321 324 325 325 335 333 335 334 331 331 331 328 329 330 326 324 326 326 355 346 351 350 355 348 347 356 355 352 350 348 348
312 319 321 320 318 321 323 327 324 326 332 325 323 323 322 322 323 326 333 330 330 331 329 328 326 326 326 325 327 326 325 320 320 331 344 349 346 349 345 350 354 352 351 350 349
316 321 320 320 323 327 326 322 328 329 330 325 323 322 320 321 324 331 330 328 327 326 325 324 326 326 328 325 322 325 318 321 325 329 335 343 344 346 346 345 350 351 350 347 350
320 324 326 326 324 324 327 324 334 334 335 333 321 321 322 322 322 324 323 324 321 322 322 327 329 329 328 323 324 325 320 321 332 332 345 341 354 349 345 347 345 352 345 345 344
323 324 325 326 327 323 322 327 331 332 333 333 325 322 320 322 323 323 322 322 323 321 326 326 329 331 326 325 325 326 325 324 326 338 345 346 349 344 347 346 348 347 345 345 347
321 323 326 328 324 323 323 326 328 332 330 330 332 325 319 321 325 323 323 324 326 324 324 327 330 327 331 329 330 328 324 324 324 348 352 348 346 350 347 347 348 346 345 346 349
323 325 330 328 323 321 327 326 330 330 329 333 332 331 330 332 330 326 327 326 326 326 325 322 321 324 331 331 330 330 328 323 319 330 347 351 344 340 347 348 345 346 343 344 346
318 323 327 322 324 321 324 328 327 329 328 330 330 326 332 331 332 332 330 325 327 323 323 324 318 326 331 331 330 329 332 319 318 330 338 345 346 341 345 344 347 344 340 341 342
320 324 330 328 326 325 325 327 327 327 328 329 332 331 329 331 331 331 332 332 330 329 329 328 324 326 327 327 327 332 333 324 318 326 332 342 347 338 341 344 345 346 344 340 340
323 334 327 325 324 330 330 329 328 327 332 334 333 328 330 330 328 333 334 333 332 330 336 330 320 323 326 328 327 331 332 326 324 330 333 337 344 342 341 345 344 345 344 345 345
319 328 324 330 329 329 328 331 338 333 333 332 332 333 333 334 336 337 336 333 331 334 328 324 326 324 323 329 331 330 330 327 326 323 325 336 342 341 340 342 342 342 342 344 344
311 314 311 320 326 329 324 327 336 338 334 331 333 334 331 331 335 334 333 333 334 328 329 322 326 329 327 327 327 327 326 328 326 327 337 338 338 335 337 341 343 342 342 348 346
315 313 313 323 325 322 322 325 329 332 335 334 333 331 333 333 330 328 328 328 330 332 329 326 323 321 325 325 330 329 329 330 330 328 337 337 334 337 340 342 342 340 344 348 348
Wind_Speed
19 17 15 13 11 10 9 8 7 6 5 5 5 6 6 8 7 4 5 2 7 15 13 12 7 6 23 8 8 1 1 4 5 6 10 9 8 11 11 16 5 6 8 23 26
19 17 15 13 11 10 8 7 6 5 4 4 4 4 5 9 6 9 5 8 13 17 16 15 7 14 5 5 2 2 1 5 3 6 13 15 12 10 7 11 3 10 18 25 26
20 17 15 13 11 9 8 7 6 4 3 3 4 3 4 6 2 4 15 20 26 23 17 13 8 2 6 3 3 2 4 4 4 14 5 14 12 3 13 3 6 20 23 19 21
21 18 15 13 11 9 7 5 4 3 2 2 3 2 3 1 4 2 23 26 28 24 15 10 3 6 7 5 4 2 13 14 8 6 9 11 6 5 5 4 9 19 25 15 15
24 20 16 13 10 8 7 5 4 2 1 2 1 1 0 1 6 12 25 25 26 15 4 3 2 4 4 4 5 5 8 14 12 15 8 9 4 7 9 17 16 19 15 11 10
27 22 18 13 10 8 6 5 3 1 1 1 1 0 1 2 6 17 24 27 20 16 10 11 7 5 7 3 3 4 9 17 10 13 13 16 12 7 10 18 16 16 12 10 8
30 25 20 14 9 7 6 4 2 1 2 1 2 2 1 8 5 16 25 30 25 26 9 12 8 5 6 5 6 6 6 6 6 10 13 18 6 10 16 17 18 14 10 10 7
31 28 23 15 8 6 5 4 2 1 1 2 3 3 6 3 11 18 20 18 21 24 23 10 7 6 3 2 5 1 4 3 6 14 2 7 5 17 17 18 15 15 12 13 9
32 31 26 18 8 5 4 3 2 1 1 3 2 2 8 4 17 22 25 17 23 22 26 2 7 3 4 3 4 1 4 5 4 3 5 5 7 17 16 15 15 14 15 13 11
32 32 29 22 10 4 1 2 3 4 1 1 5 2 7 9 15 24 26 19 7 12 9 4 4 8 5 4 5 4 6 6 6 5 9 8 9 16 18 16 16 13 13 12 15
32 34 31 25 13 3 4 3 2 1 3 8 7 4 5 7 21 14 25 9 5 3 6 9 4 10 18 13 12 4 10 7 4 8 7 7 17 15 15 13 14 12 10 8 12
33 34 33 26 13 5 4 3 5 0 7 16 8 9 9 4 3 7 21 5 4 6 11 2 12 20 14 13 10 11 16 7 3 2 6 5 9 14 15 16 17 16 12 12 9
34 35 33 25 11 3 7 14 8 7 1 7 7 6 6 12 9 12 12 8 6 5 8 9 17 14 12 14 1 7 7 6 10 4 9 11 4 5 5 10 13 15 15 13 13
36 36 33 24 5 1 8 4 19 6 4 6 4 6 4 7 5 10 17 8 5 12 11 8 9 12 12 11 6 3 6 6 19 13 7 4 4 6 10 9 15 15 14 15 12
39 36 30 18 6 4 3 17 16 3 4 3 7 4 8 9 3 6 18 3 10 10 2 11 10 10 7 9 4 8 3 4 20 7 7 3 5 2 8 7 12 16 18 18 18
39 34 28 8 8 16 15 18 6 6 4 3 8 6 6 3 5 0 7 1 4 4 3 10 7 4 7 7 0 2 5 8 5 5 2 5 4 4 2 7 13 15 18 19 18
35 31 22 9 5 4 15 3 5 3 4 5 6 5 9 6 3 7 9 7 6 2 7 8 13 8 7 5 7 6 7 3 3 3 3 4 7 6 7 9 3 6 4 4 15
34 26 13 18 8 21 4 5 2 6 6 6 6 2 9 4 4 6 7 7 7 5 4 1 10 5 5 9 9 4 8 6 3 2 1 8 3 5 7 8 5 11 9 8 5
29 12 9 9 15 7 5 2 7 7 3 5 5 2 5 4 6 4 8 9 10 12 9 6 7 4 5 8 8 3 2 5 7 3 5 2 1 6 7 6 8 11 5 5 7
22 9 8 6 19 10 5 7 6 5 6 3 6 9 9 6 3 1 6 7 8 12 9 6 4 4 5 5 3 1 2 5 4 4 1 1 2 5 8 7 6 9 5 4 10
6 4 4 16 21 5 3 7 6 6 2 1 10 6 6 6 7 7 8 10 11 6 17 7 3 8 4 2 4 5 5 3 4 5 5 3 6 7 9 10 7 5 6 7 11
5 3 11 31 4 1 3 5 8 10 16 2 4 8 6 8 7 2 4 7 11 11 9 7 5 2 4 4 2 6 4 5 5 2 3 5 5 7 8 5 4 6 6 6 6
2 3 3 8 3 2 6 7 5 13 20 7 5 3 10 2 3 3 6 3 7 4 5 2 2 3 8 8 9 4 3 4 4 3 2 6 5 3 3 7 6 5 7 5 4
2 4 4 4 1 3 5 6 7 4 7 3 5 9 5 3 7 4 6 6 6 3 6 9 4 7 6 7 5 4 3 2 7 4 4 5 5 6 11 16 11 10 7 4 6
4 2 2 4 5 7 3 8 15 8 1 4 6 5 5 8 5 6 5 6 6 2 2 5 1 5 6 8 4 6 4 3 3 6 6 8 11 20 22 24 18 17 10 7 5
3 4 5 4 5 5 8 8 14 9 9 9 5 5 11 7 3 3 6 3 3 7 4 4 3 2 3 6 2 5 8 7 3 3 9 12 5 6 9 8 7 14 14 9 6
9 6 3 6 7 5 6 6 10 10 5 10 10 2 10 10 11 5 4 6 7 4 1 2 3 3 6 4 5 4 5 4 4 2 11 7 11 8 6 11 13 10 13 11 7
Wind_Direction
346 343 339 335 332 329 327 320 308 297 284 285 277 286 290 290 303 249 237 171 165 142 117 131 192 183 114 156 224 124 168 234 240 178 96 153 182 179 145 136 179 168 153 153 147
350 347 343 340 335 331 327 326 316 302 284 279 266 283 291 304 303 227 189 153 143 130 148 171 172 154 105 135 88 33 227 249 296 78 132 135 138 141 134 157 66 105 126 132 137
352 348 346 342 338 335 336 334 327 319 288 269 261 281 295 319 308 237 166 145 127 129 145 131 128 96 88 80 83 175 243 345 209 136 145 148 173 87 134 201 186 153 150 144 141
354 350 348 345 342 343 341 340 341 338 302 256 259 291 300 337 136 198 152 145 141 127 134 124 306 58 65 102 192 261 248 270 261 144 140 160 145 100 142 171 138 158 146 141 141
357 354 349 349 349 356 354 350 354 355 302 254 288 317 207 239 247 160 160 159 158 165 125 143 127 106 110 181 212 203 299 312 308 150 111 114 117 99 94 111 121 133 139 126 130
1 356 353 349 351 357 1 355 355 4 230 239 99 77 24 248 174 170 174 169 179 169 216 193 163 171 95 279 239 229 282 289 309 133 123 116 127 95 125 126 131 143 144 137 142
4 0 353 349 349 347 1 359 7 211 224 188 133 101 320 229 189 164 175 179 186 183 188 233 137 93 129 272 247 284 300 344 270 119 121 113 85 128 147 141 142 152 151 150 163
4 1 355 349 340 340 356 18 29 208 209 146 137 134 242 196 170 154 172 180 194 205 211 173 157 70 169 212 347 341 13 57 209 145 125 91 126 148 156 146 149 157 166 170 178
4 0 355 348 335 336 4 56 82 90 177 153 119 169 269 84 171 187 169 183 196 220 238 182 92 175 125 128 301 236 261 212 193 139 126 94 123 166 160 154 152 171 178 179 181
2 359 354 348 334 327 25 115 124 128 136 316 268 334 278 215 185 192 197 186 171 207 268 17 225 323 192 124 213 165 244 179 187 193 111 113 130 157 163 162 163 173 184 182 182
358 358 353 346 336 297 145 159 49 18 208 194 204 232 280 239 201 187 197 204 202 212 116 208 196 233 240 206 213 199 239 205 234 209 101 125 128 158 164 168 163 177 181 190 194
354 354 352 346 328 281 194 201 207 273 294 220 220 276 263 263 188 253 195 163 181 236 100 26 234 250 248 259 242 228 222 200 183 131 89 92 125 154 172 176 170 174 186 193 201
352 350 350 345 324 281 229 242 200 317 354 292 186 208 226 141 211 216 148 183 215 261 237 174 253 276 248 272 309 318 135 177 161 171 91 129 64 175 202 160 170 178 187 195 195
349 345 345 344 325 301 255 338 350 168 53 275 192 261 173 152 226 196 190 152 199 228 256 247 265 233 273 267 134 298 168 129 132 131 164 187 191 233 176 181 177 186 189 191 180
345 340 339 334 285 226 270 322 328 96 5 239 221 232 160 158 181 227 184 127 212 239 65 258 293 314 306 260 205 217 234 118 161 113 126 229 99 241 130 200 196 186 195 195 189
340 335 330 318 245 253 310 333 114 43 268 280 180 177 125 242 235 132 157 169 215 231 261 253 294 222 238 296 257 333 2 35 71 128 121 206 102 16 328 224 201 194 197 195 195
333 328 304 233 232 165 347 37 46 141 306 233 185 167 181 217 237 152 158 195 191 124 279 314 274 275 198 274 344 77 61 319 342 28 209 151 66 224 301 310 130 162 103 330 199
329 321 294 255 250 262 340 54 193 235 250 279 170 253 182 179 207 184 130 200 260 161 40 231 315 211 237 195 199 192 151 154 226 143 84 36 131 250 166 289 229 136 130 114 74
333 318 278 287 205 181 78 85 211 217 226 19 50 65 285 225 165 180 194 205 213 170 186 178 257 296 199 196 127 270 247 191 103 61 101 160 328 305 327 264 247 105 133 122 97
332 327 259 219 166 139 84 235 230 208 7 330 205 187 227 206 134 45 184 223 233 186 174 233 260 306 311 75 31 168 223 14 26 138 102 349 214 217 244 251 292 129 160 160 136
338 0 309 158 140 54 170 234 274 243 220 48 310 279 217 144 165 172 217 267 212 273 171 178 202 293 21 33 146 10 352 39 114 124 150 116 260 216 220 224 231 62 242 188 135
352 3 160 147 78 182 189 229 294 318 313 245 267 309 161 165 181 142 240 219 309 160 148 205 133 92 197 219 118 170 204 139 112 311 48 117 253 236 237 298 308 327 307 8 96
45 269 60 237 143 256 296 295 264 290 282 270 350 246 289 236 107 185 304 279 22 91 149 189 47 38 352 353 348 33 24 86 95 88 188 130 245 209 266 257 249 246 297 333 16
36 16 333 32 92 63 2 287 317 234 288 32 347 8 304 104 343 62 6 312 310 97 107 84 111 152 180 204 181 301 300 107 116 104 182 196 189 200 221 228 224 211 205 197 230
24 8 76 335 338 348 329 347 15 351 239 349 18 357 16 32 33 9 10 321 346 352 109 97 256 181 212 208 238 285 271 291 157 172 151 189 176 210 200 218 202 198 187 178 236
52 27 346 297 306 330 359 6 9 345 29 345 39 349 65 64 93 320 349 353 308 341 37 32 266 158 288 238 185 243 283 320 282 55 74 140 241 235 201 185 197 214 184 163 181
354 331 105 292 339 29 346 343 349 349 319 12 358 23 44 339 306 257 211 233 240 228 149 82 116 60 267 331 359 10 224 147 159 135 138 160 213 147 182 206 212 181 168 172 152